Wind_Speed
4 5 5 5 5 3 2 2 2 4 2 2 5 8 11 13 12 13 15 18 22 22 23 20 19 22 19 19 15 10 8 7 8 15 16 19 24 28 30 32 38 32 37 39
3 2 4 5 5 4 3 5 4 2 2 3 7 9 12 14 15 15 15 18 20 21 23 24 22 21 20 20 22 23 24 22 22 18 16 18 19 22 25 26 28 34 34 35
3 4 4 8 12 10 7 6 4 5 5 8 10 14 17 17 17 18 24 22 25 25 26 28 27 27 26 24 23 22 24 23 23 23 26 25 26 25 25 25 28 30 33 35
4 5 5 5 12 11 9 8 7 5 5 9 12 15 15 16 20 20 23 25 26 28 28 29 32 31 31 30 29 29 29 26 25 24 26 27 28 28 28 27 28 33 34 33
5 11 9 9 16 14 11 9 10 7 7 10 14 17 8 19 20 21 21 21 26 31 32 33 34 35 33 31 32 32 31 31 30 28 27 27 27 29 29 30 32 32 33 31
9 4 4 3 10 13 9 12 14 9 7 12 10 10 11 20 21 22 24 25 27 29 31 33 34 36 35 32 30 29 30 29 30 31 31 31 31 31 31 31 32 35 34 35
12 8 8 10 13 12 8 3 7 6 12 11 10 12 18 21 23 24 25 27 29 30 31 32 34 34 33 33 32 28 26 28 28 29 31 33 35 36 37 37 36 36 36 36
15 9 9 14 17 15 11 10 9 11 10 9 10 14 18 20 23 24 26 27 27 27 29 29 31 31 27 27 28 29 28 28 29 31 33 34 36 37 39 41 42 42 41 40
12 7 11 11 12 13 11 12 12 10 9 7 10 14 17 21 24 25 26 26 26 24 22 22 23 23 22 23 23 23 25 27 30 31 32 35 38 39 38 40 42 45 46 46
16 17 19 18 18 18 13 14 11 10 7 7 10 14 17 20 24 26 27 27 26 22 19 17 17 18 20 21 22 23 25 26 28 31 32 32 33 36 39 40 42 43 44 47
21 21 19 19 19 19 19 14 12 10 7 8 10 14 18 21 24 26 26 26 25 23 19 17 18 19 20 22 24 26 28 30 31 32 32 32 33 35 37 37 39 41 44 46
20 17 19 21 17 17 19 15 13 10 8 7 10 16 19 20 23 25 26 25 25 24 24 22 21 20 22 24 27 29 31 33 33 34 32 34 35 36 35 37 37 38 38 41
18 24 23 24 17 17 17 17 14 11 9 8 12 17 21 22 22 23 25 28 27 27 27 27 26 25 25 29 32 33 36 35 33 33 33 34 35 38 39 32 34 35 36 39
17 19 19 17 17 17 17 18 14 12 10 10 13 17 22 25 25 25 27 29 31 29 28 29 29 29 31 32 34 34 35 35 36 34 35 34 36 37 36 37 35 33 35 39
22 18 17 17 18 17 18 18 16 14 13 12 14 18 24 28 26 27 30 32 33 31 28 28 28 26 27 28 31 32 34 34 35 34 34 34 36 37 36 37 38 39 36 29
19 21 21 20 18 19 21 19 17 15 13 13 17 22 28 27 27 32 33 34 33 31 27 26 27 27 28 30 31 33 33 34 35 34 33 35 37 38 38 38 34 27 22 20
14 16 19 22 21 19 21 20 18 15 15 17 21 25 29 29 33 35 33 32 30 29 28 27 27 27 29 30 32 34 34 35 34 34 34 37 39 39 39 34 27 21 18 19
16 17 18 19 21 20 22 20 18 16 17 20 23 27 28 34 35 33 32 31 29 27 26 26 26 27 28 30 32 34 35 35 34 33 33 36 38 39 34 27 23 21 21 22
18 17 16 22 23 24 22 18 16 17 18 21 25 25 31 34 34 33 32 30 29 28 25 25 26 27 28 29 31 33 34 34 33 32 32 37 38 35 27 21 21 22 23 22
20 19 18 18 18 19 19 17 16 16 19 23 25 29 31 32 33 32 31 30 30 29 27 25 26 27 28 29 30 32 34 34 32 31 32 35 35 30 22 19 19 19 19 17
21 21 20 19 18 19 17 15 14 18 22 24 29 31 30 29 30 31 31 31 30 28 26 25 26 27 27 29 29 31 33 32 31 30 32 34 32 26 20 18 18 18 17 14
20 21 20 18 17 17 17 18 19 22 24 28 29 29 28 27 28 28 29 31 31 30 27 25 26 27 27 28 29 30 32 31 30 27 30 32 30 25 21 19 18 17 15 14
20 20 17 15 17 15 15 19 22 24 27 27 26 27 28 28 29 30 30 29 30 29 26 24 24 26 27 27 28 29 30 29 27 25 28 30 28 25 22 20 18 17 13 11
20 19 16 14 14 16 18 21 25 26 25 24 25 26 28 29 28 28 30 30 30 28 25 23 23 25 26 26 27 28 28 27 25 23 25 27 26 24 21 19 18 16 13 9
18 17 16 15 16 18 21 24 24 23 23 23 24 25 27 28 30 30 31 31 30 28 24 22 23 24 24 24 25 26 26 25 23 20 23 24 23 21 20 19 17 15 13 8
18 17 17 17 18 21 22 22 22 22 23 23 23 25 26 27 29 30 30 29 28 27 24 21 22 23 22 22 23 24 24 22 20 17 20 21 21 19 18 17 15 13 12 10
15 15 16 18 22 23 22 21 22 23 24 25 24 25 26 28 29 30 31 29 28 25 23 21 21 21 21 21 21 22 22 20 18 15 16 18 19 17 15 14 13 11 11 11
Wind_Direction
262 257 235 262 296 333 248 227 299 157 77 14 358 0 359 356 354 357 357 354 348 348 339 340 342 336 333 297 285 275 247 255 239 217 223 225 217 218 222 230 232 230 235 247
206 225 228 240 233 197 148 134 143 142 332 337 331 339 340 341 337 335 338 331 325 327 325 325 326 320 319 318 317 296 293 288 272 267 262 236 239 237 230 227 227 233 234 238
232 244 214 254 210 198 208 207 211 271 273 312 319 327 329 329 328 323 316 319 316 315 315 316 313 312 309 310 308 302 299 297 299 303 297 278 260 251 251 247 241 235 233 233
210 157 225 208 185 196 207 217 231 255 284 308 316 320 324 316 321 323 319 315 313 313 313 313 312 309 304 302 300 300 299 297 291 289 285 285 290 289 281 271 269 263 259 254
192 219 279 246 220 203 201 247 228 249 282 303 312 323 342 305 320 317 312 309 310 312 310 307 306 307 307 305 298 294 295 295 293 289 287 277 276 276 274 275 275 274 271 273
208 233 247 260 191 188 209 258 235 235 272 302 312 320 301 315 322 320 315 311 309 307 306 306 306 305 305 305 302 297 294 289 287 288 289 286 281 276 275 274 268 268 268 266
219 238 260 217 192 192 202 233 231 257 286 291 301 303 319 327 327 325 320 314 311 307 304 300 300 302 301 303 305 304 298 293 290 288 286 286 285 284 280 278 275 273 272 270
207 224 248 211 196 196 220 251 257 277 277 288 316 326 329 330 331 327 324 321 317 310 304 302 300 302 303 302 304 303 301 299 296 294 292 288 284 281 279 277 276 275 272 270
204 221 232 202 206 222 249 255 270 262 257 299 325 326 331 332 331 329 331 328 326 322 314 305 303 306 307 306 307 308 310 309 304 302 299 295 291 286 280 277 275 272 270 268
234 244 246 245 246 257 255 263 266 245 262 304 316 328 337 342 341 338 338 335 332 331 324 315 314 317 318 318 318 318 317 314 310 309 308 303 297 292 287 284 279 276 274 272
242 245 247 249 256 257 260 257 237 235 260 290 311 326 332 343 346 343 342 339 335 332 328 324 320 317 317 317 317 316 317 317 316 310 308 307 305 300 293 287 282 277 275 274
256 256 253 255 257 247 244 230 221 227 251 280 314 332 331 329 337 343 343 338 333 327 321 317 315 313 315 319 320 317 316 317 316 312 308 307 304 300 296 292 286 281 275 273
242 252 247 252 250 236 219 215 214 226 247 280 311 329 333 329 328 333 337 337 332 326 322 314 311 308 308 312 319 320 320 320 318 316 314 311 307 305 302 295 291 286 284 282
234 242 243 245 239 224 216 210 216 231 250 283 311 325 326 322 323 327 328 329 329 324 320 318 318 307 305 310 316 319 320 321 321 321 319 314 311 310 306 302 296 288 285 283
238 234 236 226 226 222 217 214 223 235 255 286 309 316 319 322 320 323 323 324 324 321 318 318 321 322 318 317 319 321 322 323 323 322 320 318 317 314 309 304 301 298 291 281
226 230 232 225 222 223 215 220 228 241 262 290 307 313 317 320 322 323 323 321 320 318 317 317 319 321 321 321 322 323 324 325 324 323 322 323 321 317 315 312 307 300 292 289
232 229 227 226 224 219 215 224 235 251 273 292 303 306 311 314 318 320 321 318 317 315 316 317 316 318 321 321 323 324 326 327 324 325 326 325 324 324 321 317 310 303 295 294
235 237 224 219 227 222 221 231 242 260 280 292 298 303 308 313 317 322 321 319 316 314 313 314 315 317 320 321 323 325 326 326 326 328 325 326 328 326 322 316 313 310 302 296
239 228 220 207 203 214 225 237 254 266 282 294 298 302 309 313 316 318 319 319 315 313 311 315 318 318 320 321 323 325 326 328 328 328 329 332 331 329 323 321 323 320 313 306
216 213 207 208 213 221 232 248 253 271 291 299 302 306 310 313 313 318 321 321 315 311 310 315 319 320 318 322 323 326 328 330 330 331 334 336 336 332 328 332 333 326 322 318
205 209 214 214 218 230 245 241 262 287 296 301 304 306 308 310 315 321 322 320 316 313 310 313 318 320 318 322 324 327 329 332 331 332 336 338 341 338 337 336 331 329 332 326
206 210 213 222 232 238 247 249 269 288 298 302 302 303 307 313 317 320 322 320 318 314 311 307 315 319 320 323 324 327 331 333 332 334 338 341 344 344 341 337 334 332 331 334
207 206 212 227 235 250 245 263 280 292 298 298 299 304 309 314 318 319 319 322 322 318 311 306 312 319 321 323 324 327 331 333 333 336 339 343 346 347 346 344 345 343 337 337
201 206 221 218 232 248 261 276 289 296 296 298 302 305 311 313 315 318 319 319 321 318 312 307 310 317 320 322 324 327 331 333 334 336 341 345 349 353 354 355 355 352 347 338
192 201 218 235 249 265 280 290 293 294 295 298 302 305 308 312 316 320 320 321 320 316 312 308 310 316 319 321 323 327 331 334 334 337 342 347 351 355 359 1 2 4 7 11
201 217 235 254 273 285 293 294 293 294 296 298 302 305 309 312 315 317 317 318 314 312 311 308 311 315 318 320 322 326 331 334 335 336 341 348 353 356 1 3 7 15 26 43
225 247 268 283 292 295 293 291 295 297 299 302 305 308 311 314 315 316 316 313 313 308 305 304 311 314 317 318 320 325 330 334 334 336 341 348 354 359 5 10 21 36 49 66
Height
3088 3087 3087 3086 3086 3086 3085 3084 3083 3084 3083 3083 3081 3079 3076 3074 3071 3069 3064 3059 3054 3051 3049 3047 3045 3042 3041 3039 3037 3036 3037 3037 3037 3035 3035 3037 3036 3036 3037 3039 3041 3042 3046 3047
3086 3086 3086 3086 3085 3084 3083 3083 3083 3082 3082 3080 3079 3077 3076 3073 3070 3067 3063 3060 3057 3054 3049 3046 3044 3043 3040 3038 3037 3035 3034 3033 3032 3031 3031 3030 3031 3031 3030 3030 3032 3034 3034 3036
3086 3086 3086 3085 3081 3082 3081 3081 3081 3081 3080 3078 3077 3075 3071 3069 3066 3063 3059 3056 3053 3051 3047 3043 3041 3039 3037 3035 3033 3031 3030 3030 3029 3027 3026 3023 3023 3022 3023 3023 3024 3024 3024 3026
3085 3086 3084 3077 3076 3078 3079 3078 3078 3077 3076 3075 3073 3071 3069 3065 3062 3060 3056 3052 3049 3046 3042 3039 3034 3034 3032 3030 3028 3026 3023 3022 3021 3020 3020 3020 3018 3016 3014 3015 3015 3015 3016 3017
3082 3081 3077 3073 3071 3073 3075 3076 3074 3074 3073 3072 3070 3067 3069 3062 3059 3056 3054 3051 3046 3042 3038 3035 3030 3026 3024 3023 3022 3021 3018 3015 3012 3012 3012 3011 3010 3010 3009 3007 3007 3006 3007 3007
3078 3078 3072 3069 3067 3071 3072 3072 3070 3070 3070 3069 3067 3068 3067 3060 3057 3053 3050 3045 3042 3038 3033 3028 3023 3019 3017 3015 3014 3012 3012 3010 3006 3004 3001 3001 3001 3000 2999 2997 2997 2997 2997 2996
3075 3074 3068 3065 3065 3067 3072 3072 3066 3066 3066 3065 3065 3064 3059 3055 3052 3048 3045 3041 3036 3032 3027 3023 3018 3015 3012 3008 3005 3003 3002 3002 3001 3000 2996 2994 2992 2989 2987 2986 2985 2986 2984 2986
3070 3070 3064 3059 3061 3064 3065 3063 3063 3063 3062 3061 3060 3057 3054 3051 3048 3044 3040 3035 3031 3026 3021 3016 3012 3009 3006 3004 3000 2997 2995 2993 2991 2988 2986 2985 2984 2982 2979 2975 2973 2971 2971 2972
3058 3057 3054 3054 3056 3058 3059 3059 3059 3059 3058 3057 3056 3054 3051 3048 3044 3039 3035 3030 3025 3020 3016 3012 3007 3004 3001 2998 2995 2991 2987 2983 2980 2978 2976 2973 2970 2967 2965 2963 2961 2959 2959 2958
3051 3051 3050 3052 3053 3053 3054 3054 3054 3054 3054 3054 3053 3051 3048 3044 3039 3035 3030 3025 3020 3016 3013 3009 3005 3001 2998 2994 2991 2988 2985 2981 2976 2971 2967 2964 2960 2955 2951 2948 2947 2945 2945 2945
3043 3045 3046 3045 3047 3048 3048 3049 3050 3051 3051 3050 3049 3047 3044 3040 3035 3031 3026 3022 3017 3013 3010 3007 3003 2999 2995 2991 2987 2983 2979 2974 2969 2964 2959 2953 2948 2945 2942 2939 2935 2932 2930 2929
3036 3038 3039 3038 3040 3041 3042 3044 3045 3047 3047 3046 3045 3042 3039 3035 3032 3027 3022 3018 3014 3010 3006 3002 2999 2995 2991 2987 2982 2977 2972 2967 2961 2955 2950 2945 2939 2935 2931 2925 2922 2920 2918 2916
3030 3028 3031 3031 3034 3035 3037 3039 3041 3042 3042 3042 3040 3038 3035 3031 3027 3023 3019 3015 3010 3005 3001 2996 2992 2988 2985 2980 2976 2970 2963 2958 2953 2948 2942 2935 2929 2923 2915 2916 2909 2906 2904 2899
3022 3024 3025 3026 3028 3030 3032 3034 3037 3038 3038 3037 3036 3033 3031 3027 3023 3018 3014 3010 3005 3000 2995 2990 2985 2981 2976 2972 2968 2962 2956 2950 2943 2938 2932 2926 2920 2914 2907 2901 2897 2896 2893 2887
3015 3018 3019 3021 3022 3025 3027 3030 3032 3033 3033 3033 3031 3029 3026 3022 3018 3013 3009 3004 2999 2994 2989 2984 2979 2975 2970 2965 2960 2955 2949 2943 2936 2930 2924 2918 2911 2905 2899 2892 2886 2880 2877 2876
3009 3012 3013 3015 3018 3020 3023 3026 3027 3028 3028 3027 3026 3023 3020 3017 3013 3008 3002 2997 2992 2987 2983 2978 2974 2969 2964 2959 2954 2948 2942 2936 2929 2923 2917 2910 2903 2896 2888 2881 2874 2869 2866 2864
3004 3006 3008 3010 3013 3016 3019 3021 3022 3023 3023 3022 3020 3018 3015 3011 3007 3002 2996 2991 2987 2981 2976 2972 2968 2963 2958 2953 2947 2941 2935 2929 2923 2916 2908 2902 2894 2886 2877 2870 2865 2862 2860 2858
2999 3001 3002 3005 3009 3011 3014 3016 3017 3018 3018 3017 3015 3013 3009 3004 2999 2994 2990 2985 2980 2976 2971 2967 2962 2957 2952 2947 2941 2935 2929 2922 2916 2909 2903 2896 2887 2878 2870 2864 2859 2856 2853 2850
2993 2995 2997 2999 3003 3006 3009 3011 3013 3013 3012 3011 3009 3006 3002 2997 2992 2988 2983 2978 2973 2969 2965 2961 2956 2951 2946 2941 2935 2929 2923 2917 2911 2904 2897 2889 2880 2872 2865 2859 2854 2850 2846 2843
2988 2991 2994 2997 3000 3003 3005 3007 3007 3007 3006 3004 3002 2999 2994 2990 2985 2980 2976 2971 2966 2962 2958 2954 2950 2945 2941 2935 2930 2924 2917 2911 2904 2898 2891 2883 2875 2867 2861 2855 2851 2847 2843 2839
2984 2987 2990 2993 2996 2999 3000 3002 3002 3002 3000 2997 2994 2990 2987 2984 2978 2973 2969 2964 2960 2956 2952 2948 2944 2939 2935 2930 2924 2918 2912 2906 2899 2893 2886 2879 2871 2864 2857 2853 2849 2845 2841 2837
2980 2984 2987 2990 2992 2994 2995 2996 2997 2996 2993 2990 2986 2983 2980 2976 2972 2968 2963 2958 2953 2948 2945 2942 2938 2934 2929 2924 2919 2913 2907 2901 2895 2889 2883 2876 2868 2861 2855 2851 2846 2842 2838 2835
2977 2980 2984 2986 2988 2989 2990 2991 2990 2989 2986 2983 2979 2976 2972 2969 2965 2960 2957 2953 2948 2943 2939 2936 2933 2928 2924 2919 2914 2909 2903 2897 2892 2885 2880 2873 2866 2859 2853 2848 2844 2840 2836 2834
2974 2977 2980 2982 2984 2984 2985 2985 2983 2981 2978 2975 2972 2968 2965 2962 2960 2956 2951 2946 2942 2937 2933 2930 2927 2923 2918 2914 2909 2904 2899 2894 2888 2883 2878 2871 2865 2859 2853 2848 2843 2839 2835 2832
2971 2974 2976 2978 2979 2980 2979 2977 2975 2972 2970 2968 2965 2962 2959 2955 2951 2948 2944 2939 2935 2931 2928 2925 2921 2917 2913 2909 2905 2900 2895 2890 2886 2881 2876 2870 2864 2859 2854 2848 2843 2839 2835 2832
2968 2970 2972 2973 2973 2972 2970 2968 2966 2965 2963 2962 2959 2956 2953 2949 2945 2942 2938 2934 2930 2926 2922 2919 2916 2912 2909 2905 2901 2897 2892 2888 2884 2879 2875 2870 2864 2860 2855 2850 2846 2842 2839 2836
2963 2965 2966 2966 2965 2963 2962 2961 2959 2957 2955 2953 2952 2949 2945 2942 2939 2935 2931 2928 2924 2920 2917 2914 2911 2908 2904 2901 2897 2893 2889 2885 2882 2878 2874 2870 2865 2861 2857 2853 2849 2846 2843 2841